TimeCST,TemperatureF,Dew PointF,Humidity,Sea Level PressureIn,VisibilityMPH,Wind Direction,Wind SpeedMPH,Gust SpeedMPH,PrecipitationIn,Events,Conditions,WindDirDegrees,DateUTC
12:15 AM,46.4,32.0,57,30.11,10.0,Calm,Calm,-,N/A,,Clear,0,2012-11-30 06:15:00
12:35 AM,46.4,32.0,57,30.12,10.0,Calm,Calm,-,N/A,,Clear,0,2012-11-30 06:35:00
12:55 AM,48.2,32.0,54,30.11,10.0,SE,5.8,-,N/A,,Clear,130,2012-11-30 06:55:00
1:15 AM,46.4,32.0,57,30.11,10.0,Calm,Calm,-,N/A,,Clear,0,2012-11-30 07:15:00
1:35 AM,46.4,32.0,57,30.12,10.0,Calm,Calm,-,N/A,,Clear,0,2012-11-30 07:35:00
1:55 AM,46.4,32.0,57,30.12,10.0,Calm,Calm,-,N/A,,Clear,0,2012-11-30 07:55:00
2:15 AM,46.4,32.0,57,30.11,10.0,Calm,Calm,-,N/A,,Clear,0,2012-11-30 08:15:00
2:35 AM,46.4,32.0,57,30.11,10.0,SSE,4.6,-,N/A,,Clear,160,2012-11-30 08:35:00
2:55 AM,46.4,32.0,57,30.11,10.0,Calm,Calm,-,N/A,,Clear,0,2012-11-30 08:55:00
3:15 AM,46.4,32.0,57,30.10,10.0,Calm,Calm,-,N/A,,Clear,0,2012-11-30 09:15:00
3:35 AM,46.4,32.0,57,30.10,10.0,Calm,Calm,-,N/A,,Clear,0,2012-11-30 09:35:00
3:55 AM,46.4,32.0,57,30.10,10.0,Calm,Calm,-,N/A,,Partly Cloudy,0,2012-11-30 09:55:00
4:15 AM,46.4,32.0,57,30.09,10.0,Calm,Calm,-,N/A,,Partly Cloudy,0,2012-11-30 10:15:00
4:35 AM,46.4,32.0,57,30.10,10.0,Calm,Calm,-,N/A,,Scattered Clouds,0,2012-11-30 10:35:00
4:55 AM,39.2,32.0,75,30.09,10.0,Calm,Calm,-,N/A,,Mostly Cloudy,0,2012-11-30 10:55:00
5:15 AM,37.4,32.0,81,30.10,10.0,Calm,Calm,-,N/A,,Mostly Cloudy,0,2012-11-30 11:15:00
5:35 AM,37.4,32.0,81,30.10,10.0,Calm,Calm,-,N/A,,Mostly Cloudy,0,2012-11-30 11:35:00
5:55 AM,35.6,32.0,87,30.10,10.0,Calm,Calm,-,N/A,,Mostly Cloudy,0,2012-11-30 11:55:00
6:15 AM,33.8,32.0,93,30.10,10.0,Calm,Calm,-,N/A,,Mostly Cloudy,0,2012-11-30 12:15:00
6:35 AM,33.8,32.0,93,30.10,10.0,Calm,Calm,-,N/A,,Mostly Cloudy,0,2012-11-30 12:35:00
6:55 AM,33.8,30.2,87,30.10,10.0,Calm,Calm,-,N/A,,Partly Cloudy,0,2012-11-30 12:55:00
7:15 AM,33.8,30.2,87,30.10,10.0,Calm,Calm,-,N/A,,Clear,0,2012-11-30 13:15:00
7:55 AM,32.0,30.2,93,30.11,10.0,Calm,Calm,-,N/A,,Clear,0,2012-11-30 13:55:00
8:15 AM,35.6,32.0,87,30.12,10.0,Calm,Calm,-,N/A,,Clear,0,2012-11-30 14:15:00
8:35 AM,39.2,32.0,75,30.12,10.0,Calm,Calm,-,N/A,,Clear,0,2012-11-30 14:35:00
8:55 AM,41.0,33.8,76,30.12,10.0,Calm,Calm,-,N/A,,Clear,0,2012-11-30 14:55:00
9:15 AM,46.4,37.4,71,30.12,10.0,Calm,Calm,-,N/A,,Clear,0,2012-11-30 15:15:00
9:35 AM,50.0,35.6,58,30.12,10.0,Calm,Calm,-,N/A,,Clear,0,2012-11-30 15:35:00
9:55 AM,53.6,35.6,51,30.12,10.0,Calm,Calm,-,N/A,,Clear,0,2012-11-30 15:55:00
10:15 AM,55.4,37.4,51,30.12,10.0,Calm,Calm,-,N/A,,Clear,0,2012-11-30 16:15:00
10:35 AM,57.2,37.4,48,30.11,10.0,Calm,Calm,-,N/A,,Clear,0,2012-11-30 16:35:00
10:55 AM,59.0,39.2,48,30.11,10.0,WSW,4.6,-,N/A,,Clear,240,2012-11-30 16:55:00
11:15 AM,59.0,41.0,51,30.09,10.0,WSW,5.8,-,N/A,,Clear,240,2012-11-30 17:15:00
11:35 AM,60.8,41.0,48,30.08,10.0,South,6.9,-,N/A,,Clear,190,2012-11-30 17:35:00
11:55 AM,62.6,42.8,48,30.07,10.0,WSW,4.6,-,N/A,,Clear,250,2012-11-30 17:55:00
12:15 PM,62.6,42.8,48,30.07,10.0,WSW,6.9,-,N/A,,Clear,250,2012-11-30 18:15:00
12:35 PM,64.4,44.6,49,30.06,10.0,West,4.6,-,N/A,,Clear,260,2012-11-30 18:35:00
12:55 PM,64.4,44.6,49,30.06,10.0,WSW,4.6,-,N/A,,Clear,250,2012-11-30 18:55:00
1:15 PM,64.4,44.6,49,30.05,9.0,SW,6.9,-,N/A,,Clear,230,2012-11-30 19:15:00
1:35 PM,64.4,44.6,49,30.05,10.0,SW,4.6,-,N/A,,Clear,230,2012-11-30 19:35:00
1:55 PM,66.2,44.6,46,30.05,10.0,SSW,8.1,-,N/A,,Clear,210,2012-11-30 19:55:00
2:15 PM,66.2,44.6,46,30.05,10.0,SSW,3.5,-,N/A,,Clear,200,2012-11-30 20:15:00
2:35 PM,66.2,44.6,46,30.04,10.0,South,6.9,-,N/A,,Clear,190,2012-11-30 20:35:00
2:55 PM,66.2,44.6,46,30.05,10.0,SSW,8.1,-,N/A,,Clear,200,2012-11-30 20:55:00
3:15 PM,66.2,44.6,46,30.05,10.0,SSW,4.6,-,N/A,,Clear,210,2012-11-30 21:15:00
3:35 PM,66.2,46.4,49,30.05,10.0,Calm,Calm,-,N/A,,Clear,0,2012-11-30 21:35:00
3:55 PM,64.4,44.6,49,30.05,10.0,Calm,Calm,-,N/A,,Clear,0,2012-11-30 21:55:00
4:15 PM,64.4,44.6,49,30.05,10.0,Calm,Calm,-,N/A,,Clear,0,2012-11-30 22:15:00
4:35 PM,62.6,44.6,52,30.06,10.0,Calm,Calm,-,N/A,,Clear,0,2012-11-30 22:35:00
4:55 PM,62.6,44.6,52,30.06,10.0,Calm,Calm,-,N/A,,Clear,0,2012-11-30 22:55:00
5:35 PM,55.4,44.6,67,30.06,10.0,Calm,Calm,-,N/A,,Clear,0,2012-11-30 23:35:00
5:55 PM,51.8,44.6,76,30.06,10.0,Calm,Calm,-,N/A,,Clear,0,2012-11-30 23:55:00
6:15 PM,48.2,41.0,76,30.07,10.0,Calm,Calm,-,N/A,,Clear,0,2012-12-01 00:15:00
6:35 PM,50.0,41.0,71,30.07,10.0,Calm,Calm,-,N/A,,Clear,0,2012-12-01 00:35:00
6:55 PM,48.2,41.0,76,30.07,10.0,Calm,Calm,-,N/A,,Partly Cloudy,0,2012-12-01 00:55:00
7:15 PM,48.2,41.0,76,30.07,10.0,Calm,Calm,-,N/A,,Partly Cloudy,0,2012-12-01 01:15:00
7:35 PM,46.4,39.2,76,30.07,10.0,Calm,Calm,-,N/A,,Partly Cloudy,0,2012-12-01 01:35:00
8:35 PM,42.8,39.2,87,30.07,10.0,Calm,Calm,-,N/A,,Scattered Clouds,0,2012-12-01 02:35:00
9:15 PM,44.6,39.2,81,30.07,10.0,Calm,Calm,-,N/A,,Scattered Clouds,0,2012-12-01 03:15:00
9:35 PM,44.6,41.0,87,30.07,10.0,Calm,Calm,-,N/A,,Scattered Clouds,0,2012-12-01 03:35:00
9:55 PM,42.8,39.2,87,30.08,10.0,Calm,Calm,-,N/A,,Scattered Clouds,0,2012-12-01 03:55:00
10:15 PM,44.6,39.2,81,30.08,10.0,Calm,Calm,-,N/A,,Partly Cloudy,0,2012-12-01 04:15:00
10:35 PM,46.4,41.0,81,30.08,10.0,Calm,Calm,-,N/A,,Partly Cloudy,0,2012-12-01 04:35:00
11:15 PM,44.6,41.0,87,30.09,10.0,Calm,Calm,-,N/A,,Clear,0,2012-12-01 05:15:00
11:35 PM,48.2,41.0,76,30.09,10.0,Calm,Calm,-,N/A,,Clear,0,2012-12-01 05:35:00
11:55 PM,50.0,42.8,76,30.08,10.0,Calm,Calm,-,N/A,,Clear,0,2012-12-01 05:55:00